,,,PA_Meas_PMT16A,,PR_Meas_QMR101_102,,RH_Meas_QMH101,,SR_Meas_QMS101,,TA_Meas_QMH101,,GenWind,,GenWind,
date,time,status,PA,status,PR,status,RH,status,SR,status,TA,status,DirAvg,status,SpdAvg,
2011-06-10, 00:00:04,VALID,1003.35,VALID,0,INVALID,163.639,VALID,0,VALID,25.6311,VALID,351,VALID,0.470313,
2011-06-10, 00:01:04,VALID,1003.35,VALID,0,INVALID,163.639,VALID,0,VALID,25.6311,VALID,352,VALID,0.130078,
2011-06-10, 00:02:04,VALID,1003.33,VALID,0,INVALID,163.617,VALID,0,VALID,25.6311,VALID,345,VALID,0.138672,
2011-06-10, 00:03:04,VALID,1003.32,VALID,0,INVALID,163.601,VALID,0,VALID,25.5902,VALID,344,VALID,0.256641,
2011-06-10, 00:04:04,VALID,1003.3,VALID,0,INVALID,163.647,VALID,0,VALID,25.6116,VALID,348,VALID,0.0742188,
2011-06-10, 00:05:04,VALID,1003.31,VALID,0,INVALID,163.601,VALID,0,VALID,25.5921,VALID,347,VALID,0.0488281,
2011-06-10, 00:06:04,VALID,1003.31,VALID,0,INVALID,163.594,VALID,0,VALID,25.5921,VALID,274,VALID,0.711328,
2011-06-10, 00:07:04,VALID,1003.29,VALID,0,INVALID,163.601,VALID,0,VALID,25.5902,VALID,265,VALID,0.277734,
2011-06-10, 00:08:04,VALID,1003.31,VALID,0,INVALID,163.617,VALID,0,VALID,25.6116,VALID,268,VALID,0.177344,
2011-06-10, 00:09:04,VALID,1003.29,VALID,0,INVALID,163.578,VALID,0,VALID,25.6311,VALID,283,VALID,0.157422,
2011-06-10, 00:10:04,VALID,1003.26,VALID,0,INVALID,163.609,VALID,0,VALID,25.6116,VALID,283,VALID,0.275,
2011-06-10, 00:11:04,VALID,1003.27,VALID,0,INVALID,163.632,VALID,0,VALID,25.6116,VALID,288,VALID,0.76875,
2011-06-10, 00:12:04,VALID,1003.26,VALID,0,INVALID,163.601,VALID,0,VALID,25.6311,VALID,282,VALID,0.187109,
2011-06-10, 00:13:04,VALID,1003.24,VALID,0,INVALID,163.647,VALID,0,VALID,25.6097,VALID,288,VALID,0.463281,
2011-06-10, 00:14:04,VALID,1003.25,VALID,0,INVALID,163.845,VALID,0,VALID,25.6525,VALID,297,VALID,0.383984,
2011-06-10, 00:15:04,VALID,1003.26,VALID,0,INVALID,163.639,VALID,0,VALID,25.6311,VALID,299,VALID,0,
2011-06-10, 00:16:04,VALID,1003.25,VALID,0,INVALID,163.624,VALID,0,VALID,25.6311,VALID,309,VALID,0.444531,
2011-06-10, 00:17:04,VALID,1003.28,VALID,0,INVALID,163.601,VALID,0,VALID,25.6311,VALID,1,VALID,0.428516,
2011-06-10, 00:18:04,VALID,1003.27,VALID,0,INVALID,163.624,VALID,0,VALID,25.5902,VALID,1,VALID,0.245703,
2011-06-10, 00:19:04,VALID,1003.34,VALID,0,INVALID,163.624,VALID,0,VALID,25.6116,VALID,326,VALID,0.415234,
2011-06-10, 00:20:04,VALID,1003.35,VALID,0,INVALID,163.639,VALID,0,VALID,25.6311,VALID,283,VALID,0.494922,
2011-06-10, 00:21:04,VALID,1003.37,VALID,0,INVALID,163.624,VALID,0,VALID,25.6116,VALID,257,VALID,0.63125,
2011-06-10, 00:22:04,VALID,1003.39,VALID,0,INVALID,163.639,VALID,0,VALID,25.6116,VALID,236,VALID,1.62422,
2011-06-10, 00:23:04,VALID,1003.39,VALID,0,INVALID,163.647,VALID,0,VALID,25.5902,VALID,248,VALID,0.683984,
2011-06-10, 00:24:04,VALID,1003.37,VALID,0,INVALID,163.624,VALID,0,VALID,25.6311,VALID,256,VALID,1.21523,
2011-06-10, 00:25:04,VALID,1003.34,VALID,0,INVALID,163.617,VALID,0,VALID,25.67,VALID,238,VALID,1.35625,
2011-06-10, 00:26:04,VALID,1003.35,VALID,0,INVALID,163.624,VALID,0,VALID,25.7285,VALID,275,VALID,0.527734,
2011-06-10, 00:27:04,VALID,1003.31,VALID,0,INVALID,163.609,VALID,0,VALID,25.7265,VALID,271,VALID,1.3543,
2011-06-10, 00:28:04,VALID,1003.29,VALID,0,INVALID,163.632,VALID,0,VALID,25.746,VALID,232,VALID,1.37031,
2011-06-10, 00:29:04,VALID,1003.27,VALID,0,INVALID,163.632,VALID,0,VALID,25.7869,VALID,273,VALID,0.917188,
2011-06-10, 00:30:04,VALID,1003.27,VALID,0,INVALID,163.609,VALID,0,VALID,25.7869,VALID,236,VALID,1.09258,
2011-06-10, 00:31:04,VALID,1003.26,VALID,0,INVALID,163.617,VALID,0,VALID,25.8064,VALID,109,VALID,0.639063,
2011-06-10, 00:32:04,VALID,1003.26,VALID,0,INVALID,163.601,VALID,0,VALID,25.8064,VALID,264,VALID,0.770703,
2011-06-10, 00:33:04,VALID,1003.22,VALID,0,INVALID,163.632,VALID,0,VALID,25.8278,VALID,236,VALID,1.78672,
2011-06-10, 00:34:04,VALID,1003.21,VALID,0,INVALID,163.578,VALID,0,VALID,25.8259,VALID,299,VALID,1.10078,
2011-06-10, 00:35:04,VALID,1003.23,VALID,0,INVALID,163.586,VALID,0,VALID,25.8453,VALID,306,VALID,0.382422,
2011-06-10, 00:36:04,VALID,1003.19,VALID,0,INVALID,163.601,VALID,0,VALID,25.8259,VALID,299,VALID,0.680859,
2011-06-10, 00:37:04,VALID,1003.17,VALID,0,INVALID,163.586,VALID,0,VALID,25.8259,VALID,34,VALID,0.278516,
2011-06-10, 00:38:04,VALID,1003.16,VALID,0,INVALID,163.609,VALID,0,VALID,25.8259,VALID,288,VALID,0.785156,
2011-06-10, 00:39:04,VALID,1003.13,VALID,0,INVALID,163.624,VALID,0,VALID,25.8064,VALID,233,VALID,0.882813,
2011-06-10, 00:40:04,VALID,1003.09,VALID,0,INVALID,163.617,VALID,0,VALID,25.8259,VALID,195,VALID,0.592188,
2011-06-10, 00:41:04,VALID,1003.03,VALID,0,INVALID,163.617,VALID,0,VALID,25.7869,VALID,244,VALID,0.985937,
2011-06-10, 00:42:04,VALID,1003.05,VALID,0,INVALID,163.601,VALID,0,VALID,25.7869,VALID,221,VALID,0.432031,
2011-06-10, 00:43:04,VALID,1003.01,VALID,0,INVALID,163.609,VALID,0,VALID,25.7869,VALID,205,VALID,0.295312,
2011-06-10, 00:44:04,VALID,1003.04,VALID,0,INVALID,163.594,VALID,0.100563,VALID,25.7635,VALID,231,VALID,0.849219,
2011-06-10, 00:45:04,VALID,1003.02,VALID,0,INVALID,163.609,VALID,0.100563,VALID,25.785,VALID,218,VALID,0.505469,
2011-06-10, 00:46:04,VALID,1003.02,VALID,0,INVALID,163.601,VALID,0,VALID,25.785,VALID,299,VALID,0.631641,
2011-06-10, 00:47:04,VALID,1003.04,VALID,0,INVALID,163.594,VALID,0,VALID,25.785,VALID,211,VALID,1.20313,
2011-06-10, 00:48:04,VALID,1003,VALID,0,INVALID,163.594,VALID,0,VALID,25.785,VALID,264,VALID,0.521094,
2011-06-10, 00:49:04,VALID,1002.98,VALID,0,INVALID,163.594,VALID,0.100563,VALID,25.8044,VALID,257,VALID,0.4625,
2011-06-10, 00:50:04,VALID,1002.96,VALID,0,INVALID,163.624,VALID,0,VALID,25.8044,VALID,274,VALID,0.655859,
2011-06-10, 00:51:04,VALID,1002.98,VALID,0,INVALID,163.609,VALID,0.100563,VALID,25.8239,VALID,349,VALID,0.4125,
2011-06-10, 00:52:04,VALID,1002.96,VALID,0,INVALID,163.601,VALID,0.100563,VALID,25.8239,VALID,205,VALID,0.607813,
2011-06-10, 00:53:04,VALID,1002.97,VALID,0,INVALID,163.594,VALID,0,VALID,25.8453,VALID,179,VALID,1.40742,
2011-06-10, 00:54:04,VALID,1002.98,VALID,0,INVALID,163.601,VALID,0.100563,VALID,25.8434,VALID,288,VALID,0.748047,
2011-06-10, 00:55:04,VALID,1002.99,VALID,0,INVALID,163.624,VALID,0,VALID,25.8414,VALID,290,VALID,0.322656,
2011-06-10, 00:56:04,VALID,1003,VALID,0,INVALID,163.617,VALID,0.100563,VALID,25.8629,VALID,250,VALID,0.466406,
2011-06-10, 00:57:04,VALID,1003.02,VALID,0,INVALID,163.594,VALID,0,VALID,25.8629,VALID,280,VALID,0.682813,
2011-06-10, 00:58:04,VALID,1003.06,VALID,0,INVALID,163.586,VALID,0.100563,VALID,25.8629,VALID,262,VALID,0.767187,
2011-06-10, 00:59:04,VALID,1003.03,VALID,0,INVALID,163.601,VALID,0,VALID,25.8823,VALID,288,VALID,0.499609,
2011-06-10, 01:00:04,VALID,1003.07,VALID,0,INVALID,163.594,VALID,0.100563,VALID,25.9018,VALID,299,VALID,1.04922,
2011-06-10, 01:01:04,VALID,1003.09,VALID,0,INVALID,163.617,VALID,0.100563,VALID,25.9018,VALID,293,VALID,0.686328,
2011-06-10, 01:02:04,VALID,1003.08,VALID,0,INVALID,163.609,VALID,0.100563,VALID,25.9213,VALID,236,VALID,0.569531,
2011-06-10, 01:03:04,VALID,1003.13,VALID,0,INVALID,163.609,VALID,0,VALID,25.9213,VALID,225,VALID,0.905469,
2011-06-10, 01:04:04,VALID,1003.1,VALID,0,INVALID,163.601,VALID,0,VALID,25.9213,VALID,248,VALID,0.344531,
2011-06-10, 01:05:04,VALID,1003.08,VALID,0,INVALID,163.601,VALID,0.100563,VALID,25.9408,VALID,282,VALID,0.826953,
2011-06-10, 01:06:04,VALID,1003.06,VALID,0,INVALID,163.601,VALID,0,VALID,25.9602,VALID,225,VALID,0.475391,
2011-06-10, 01:07:04,VALID,1003.05,VALID,0,INVALID,163.586,VALID,0.100563,VALID,25.9602,VALID,221,VALID,1.18633,
2011-06-10, 01:08:04,VALID,1003.01,VALID,0,INVALID,163.578,VALID,0,VALID,25.9797,VALID,123,VALID,0.552344,
2011-06-10, 01:09:04,VALID,1003.01,VALID,0,INVALID,163.601,VALID,0.100563,VALID,25.9777,VALID,208,VALID,1.06406,
2011-06-10, 01:10:04,VALID,1002.98,VALID,0,INVALID,163.563,VALID,0,VALID,25.9797,VALID,247,VALID,0.711719,
2011-06-10, 01:11:04,VALID,1002.96,VALID,0,INVALID,163.617,VALID,0,VALID,25.9602,VALID,230,VALID,0.315234,
2011-06-10, 01:12:04,VALID,1002.94,VALID,0,INVALID,163.601,VALID,0,VALID,25.9797,VALID,233,VALID,1.2168,
2011-06-10, 01:13:04,VALID,1002.92,VALID,0,INVALID,163.617,VALID,0,VALID,25.9992,VALID,235,VALID,1.01406,
2011-06-10, 01:14:04,VALID,1002.91,VALID,0,INVALID,163.594,VALID,0.100563,VALID,25.9583,VALID,254,VALID,1.09219,
2011-06-10, 01:15:04,VALID,1002.9,VALID,0,INVALID,163.601,VALID,0,VALID,25.9992,VALID,219,VALID,0.4375,
2011-06-10, 01:16:04,VALID,1002.88,VALID,0,INVALID,163.586,VALID,0,VALID,25.9992,VALID,229,VALID,0.5125,
2011-06-10, 01:17:04,VALID,1002.87,VALID,0,INVALID,163.609,VALID,0.100563,VALID,25.9583,VALID,184,VALID,0.742188,
2011-06-10, 01:18:04,VALID,1002.87,VALID,0,INVALID,163.594,VALID,0,VALID,25.9797,VALID,245,VALID,0.896484,
2011-06-10, 01:19:04,VALID,1002.85,VALID,0,INVALID,163.578,VALID,0.100563,VALID,25.9797,VALID,218,VALID,1.76797,
2011-06-10, 01:20:04,VALID,1002.86,VALID,0,INVALID,163.578,VALID,0.100563,VALID,25.9797,VALID,269,VALID,1.39648,
2011-06-10, 01:21:04,VALID,1002.82,VALID,0,INVALID,163.586,VALID,0,VALID,25.9992,VALID,208,VALID,0.814062,
2011-06-10, 01:22:04,VALID,1002.8,VALID,0,INVALID,163.624,VALID,0,VALID,25.9777,VALID,259,VALID,0.880859,
2011-06-10, 01:23:04,VALID,1002.79,VALID,0,INVALID,163.601,VALID,0.100563,VALID,26.0187,VALID,260,VALID,1.06211,
2011-06-10, 01:24:04,VALID,1002.78,VALID,0,INVALID,163.601,VALID,0,VALID,26.0187,VALID,262,VALID,0.721875,
2011-06-10, 01:25:04,VALID,1002.73,VALID,0,INVALID,163.609,VALID,0,VALID,26.0381,VALID,201,VALID,0.902344,
2011-06-10, 01:26:04,VALID,1002.71,VALID,0,INVALID,163.586,VALID,0,VALID,26.0381,VALID,261,VALID,0.610937,
2011-06-10, 01:27:04,VALID,1002.71,VALID,0,INVALID,163.601,VALID,0,VALID,26.0381,VALID,287,VALID,1.24688,
2011-06-10, 01:28:04,VALID,1002.67,VALID,0,INVALID,163.578,VALID,0,VALID,26.0576,VALID,333,VALID,0.623438,
2011-06-10, 01:29:04,VALID,1002.65,VALID,0,INVALID,163.571,VALID,0,VALID,26.0791,VALID,275,VALID,0.932422,
2011-06-10, 01:30:04,VALID,1002.62,VALID,0,INVALID,163.586,VALID,0,VALID,26.0985,VALID,277,VALID,1.29102,
2011-06-10, 01:31:04,VALID,1002.6,VALID,0,INVALID,163.563,VALID,0,VALID,26.159,VALID,307,VALID,0.915625,
2011-06-10, 01:32:04,VALID,1002.56,VALID,0,INVALID,163.617,VALID,0,VALID,26.0966,VALID,275,VALID,1.36641,
2011-06-10, 01:33:04,VALID,1002.53,VALID,0,INVALID,163.578,VALID,0,VALID,26.116,VALID,295,VALID,1.52188,
2011-06-10, 01:34:04,VALID,1002.49,VALID,0,INVALID,163.586,VALID,0,VALID,26.157,VALID,300,VALID,0.656641,
2011-06-10, 01:35:04,VALID,1002.47,VALID,0,INVALID,163.609,VALID,0,VALID,26.1375,VALID,278,VALID,1.09961,
2011-06-10, 01:36:04,VALID,1002.43,VALID,0,INVALID,163.578,VALID,0,VALID,26.0985,VALID,327,VALID,1.13555,
2011-06-10, 01:37:04,VALID,1002.42,VALID,0,INVALID,163.578,VALID,0,VALID,26.0985,VALID,307,VALID,0.764453,
2011-06-10, 01:38:04,VALID,1002.39,VALID,0,INVALID,163.563,VALID,0,VALID,26.0771,VALID,264,VALID,0.901953,
2011-06-10, 01:39:04,VALID,1002.42,VALID,0,INVALID,163.578,VALID,0,VALID,26.0576,VALID,295,VALID,1.99023,
2011-06-10, 01:40:04,VALID,1002.36,VALID,0,INVALID,163.578,VALID,0,VALID,26.0791,VALID,349,VALID,0.973437,
2011-06-10, 01:41:04,VALID,1002.33,VALID,0,INVALID,163.601,VALID,0,VALID,26.0596,VALID,343,VALID,0.574219,
2011-06-10, 01:42:04,VALID,1002.32,VALID,0,INVALID,163.586,VALID,0,VALID,26.0791,VALID,272,VALID,1.98086,
2011-06-10, 01:43:04,VALID,1002.31,VALID,0,INVALID,163.563,VALID,0,VALID,26.118,VALID,300,VALID,1.47109,
2011-06-10, 01:44:04,VALID,1002.29,VALID,0,INVALID,163.601,VALID,0,VALID,26.1375,VALID,259,VALID,0.876953,
2011-06-10, 01:45:04,VALID,1002.26,VALID,0,INVALID,163.594,VALID,0,VALID,26.157,VALID,312,VALID,1.49961,
2011-06-10, 01:46:04,VALID,1002.26,VALID,0,INVALID,163.578,VALID,0,VALID,26.1765,VALID,263,VALID,1.79688,
2011-06-10, 01:47:04,VALID,1002.23,VALID,0,INVALID,163.586,VALID,0,VALID,26.1959,VALID,278,VALID,2.31914,
2011-06-10, 01:48:04,VALID,1002.21,VALID,0,INVALID,163.578,VALID,0,VALID,26.1959,VALID,262,VALID,1.17852,
2011-06-10, 01:49:04,VALID,1002.19,VALID,0,INVALID,163.578,VALID,0,VALID,26.1355,VALID,305,VALID,0.929297,
2011-06-10, 01:50:04,VALID,1002.18,VALID,0,INVALID,163.571,VALID,0,VALID,26.159,VALID,300,VALID,0.677344,
2011-06-10, 01:51:04,VALID,1002.17,VALID,0,INVALID,163.617,VALID,0,VALID,26.1395,VALID,289,VALID,0.858594,
2011-06-10, 01:52:04,VALID,1002.12,VALID,0,INVALID,163.556,VALID,0,VALID,26.0791,VALID,272,VALID,0.983594,
2011-06-10, 01:53:04,VALID,1002.09,VALID,0,INVALID,163.586,VALID,0,VALID,26.0791,VALID,291,VALID,0.652344,
2011-06-10, 01:54:04,VALID,1002.05,VALID,0,INVALID,163.594,VALID,0,VALID,26.081,VALID,285,VALID,0.669922,
2011-06-10, 01:55:04,VALID,1002.02,VALID,0,INVALID,163.601,VALID,0,VALID,26.0206,VALID,295,VALID,0.822656,
2011-06-10, 01:56:04,VALID,1001.98,VALID,0,INVALID,163.563,VALID,0,VALID,26.0012,VALID,288,VALID,0.764844,
2011-06-10, 01:57:04,VALID,1001.96,VALID,0,INVALID,163.601,VALID,0,VALID,25.9622,VALID,255,VALID,0.952734,
2011-06-10, 01:58:04,VALID,1001.91,VALID,0,INVALID,163.594,VALID,0,VALID,25.9018,VALID,287,VALID,1.16836,
2011-06-10, 01:59:04,VALID,1001.91,VALID,0,INVALID,163.586,VALID,0,VALID,25.9232,VALID,287,VALID,0.900781,
2011-06-10, 02:00:04,VALID,1001.93,VALID,0,INVALID,163.594,VALID,0,VALID,25.9038,VALID,275,VALID,1.12148,
2011-06-10, 02:01:04,VALID,1001.9,VALID,0,INVALID,163.601,VALID,0,VALID,25.8843,VALID,320,VALID,1.3582,
2011-06-10, 02:02:04,VALID,1001.84,VALID,0,INVALID,163.617,VALID,0,VALID,25.8843,VALID,5,VALID,0.591797,
2011-06-10, 02:03:04,VALID,1001.87,VALID,0,INVALID,163.609,VALID,0,VALID,25.8453,VALID,296,VALID,1.58711,
2011-06-10, 02:04:04,VALID,1001.83,VALID,0,INVALID,163.609,VALID,0,VALID,25.8453,VALID,287,VALID,0.283984,
2011-06-10, 02:05:04,VALID,1001.87,VALID,0,INVALID,163.601,VALID,0,VALID,25.8239,VALID,286,VALID,0.293359,
2011-06-10, 02:06:04,VALID,1001.84,VALID,0,INVALID,163.617,VALID,0,VALID,25.8044,VALID,354,VALID,0.297656,
2011-06-10, 02:07:04,VALID,1001.83,VALID,0,INVALID,163.586,VALID,0,VALID,25.8064,VALID,353,VALID,0.221875,
2011-06-10, 02:08:04,VALID,1001.77,VALID,0,INVALID,163.609,VALID,0,VALID,25.748,VALID,270,VALID,0.60625,
2011-06-10, 02:09:04,VALID,1001.76,VALID,0,INVALID,163.624,VALID,0,VALID,25.7285,VALID,271,VALID,0.45625,
2011-06-10, 02:10:04,VALID,1001.76,VALID,0,INVALID,163.624,VALID,0,VALID,25.709,VALID,227,VALID,0.00585938,
2011-06-10, 02:11:04,VALID,1001.73,VALID,0,INVALID,163.632,VALID,0,VALID,25.6506,VALID,347,VALID,0.658594,
2011-06-10, 02:12:04,VALID,1001.68,VALID,0,INVALID,163.624,VALID,0,VALID,25.6116,VALID,351,VALID,0.423438,
2011-06-10, 02:13:04,VALID,1001.68,VALID,0,INVALID,163.632,VALID,0,VALID,25.5921,VALID,349,VALID,0.521094,
2011-06-10, 02:14:04,VALID,1001.66,VALID,0,INVALID,163.624,VALID,0,VALID,25.5513,VALID,356,VALID,0.384766,
2011-06-10, 02:15:04,VALID,1001.62,VALID,0,INVALID,163.639,VALID,0,VALID,25.5532,VALID,356,VALID,0.469531,
2011-06-10, 02:16:04,VALID,1001.61,VALID,0,INVALID,163.655,VALID,0,VALID,25.5337,VALID,356,VALID,0.655859,
2011-06-10, 02:17:04,VALID,1001.59,VALID,0,INVALID,163.639,VALID,0,VALID,25.4948,VALID,356,VALID,0.362109,
2011-06-10, 02:18:04,VALID,1001.59,VALID,0,INVALID,163.647,VALID,0,VALID,25.4558,VALID,356,VALID,0.525391,
2011-06-10, 02:19:04,VALID,1001.61,VALID,0,INVALID,163.647,VALID,0,VALID,25.4169,VALID,356,VALID,0.639453,
2011-06-10, 02:20:04,VALID,1001.6,VALID,0,INVALID,163.632,VALID,0,VALID,25.4188,VALID,344,VALID,0.667969,
2011-06-10, 02:21:04,VALID,1001.58,VALID,0,INVALID,163.632,VALID,0,VALID,25.3798,VALID,325,VALID,0.248047,
2011-06-10, 02:22:04,VALID,1001.6,VALID,0,INVALID,163.647,VALID,0,VALID,25.339,VALID,330,VALID,0.0566406,
2011-06-10, 02:23:04,VALID,1001.63,VALID,0,INVALID,163.647,VALID,0,VALID,25.2981,VALID,330,VALID,0.147656,
2011-06-10, 02:24:04,VALID,1001.61,VALID,0,INVALID,163.632,VALID,0,VALID,25.3195,VALID,330,VALID,0.332422,
2011-06-10, 02:25:04,VALID,1001.62,VALID,0,INVALID,163.655,VALID,0,VALID,25.3,VALID,341,VALID,0.549219,
2011-06-10, 02:26:04,VALID,1001.67,VALID,0,INVALID,163.67,VALID,0,VALID,25.3019,VALID,343,VALID,0.49375,
2011-06-10, 02:27:04,VALID,1001.68,VALID,0,INVALID,163.655,VALID,0,VALID,25.2806,VALID,342,VALID,0.207422,
2011-06-10, 02:28:04,VALID,1001.68,VALID,0,INVALID,163.617,VALID,0,VALID,25.2806,VALID,341,VALID,0.262109,
2011-06-10, 02:29:04,VALID,1001.66,VALID,0,INVALID,163.662,VALID,0,VALID,25.2592,VALID,324,VALID,0.397266,
2011-06-10, 02:30:04,VALID,1001.69,VALID,0,INVALID,163.655,VALID,0.100563,VALID,25.2592,VALID,357,VALID,0.554297,
2011-06-10, 02:31:04,VALID,1001.66,VALID,0,INVALID,163.655,VALID,0.100563,VALID,25.2202,VALID,327,VALID,0.116406,
2011-06-10, 02:32:04,VALID,1001.68,VALID,0,INVALID,163.632,VALID,0.100563,VALID,25.2397,VALID,2,VALID,0.347656,
2011-06-10, 02:33:04,VALID,1001.7,VALID,0,INVALID,163.647,VALID,0.100563,VALID,25.2202,VALID,2,VALID,0.107422,
2011-06-10, 02:34:04,VALID,1001.73,VALID,0,INVALID,163.639,VALID,0,VALID,25.2007,VALID,322,VALID,0.147656,
2011-06-10, 02:35:04,VALID,1001.72,VALID,0,INVALID,163.647,VALID,0.100563,VALID,25.2007,VALID,261,VALID,0.542969,
2011-06-10, 02:36:04,VALID,1001.73,VALID,0,INVALID,163.678,VALID,0.100563,VALID,25.1794,VALID,300,VALID,0.651172,
2011-06-10, 02:37:04,VALID,1001.73,VALID,0,INVALID,163.639,VALID,0,VALID,25.2007,VALID,263,VALID,0.201562,
2011-06-10, 02:38:04,VALID,1001.74,VALID,0,INVALID,163.662,VALID,0.100563,VALID,25.2007,VALID,282,VALID,0.357812,
2011-06-10, 02:39:04,VALID,1001.76,VALID,0,INVALID,163.655,VALID,0,VALID,25.2007,VALID,282,VALID,0.0558594,
2011-06-10, 02:40:04,VALID,1001.74,VALID,0,INVALID,163.67,VALID,0.100563,VALID,25.2007,VALID,282,VALID,0.125781,
2011-06-10, 02:41:04,VALID,1001.77,VALID,0,INVALID,163.678,VALID,0.100563,VALID,25.1599,VALID,309,VALID,0.312891,
2011-06-10, 02:42:04,VALID,1001.75,VALID,0,INVALID,163.647,VALID,0.100563,VALID,25.1813,VALID,341,VALID,0.546875,
2011-06-10, 02:43:04,VALID,1001.78,VALID,0,INVALID,163.67,VALID,0.100563,VALID,25.1599,VALID,354,VALID,0.328906,
2011-06-10, 02:44:04,VALID,1001.76,VALID,0,INVALID,163.655,VALID,0,VALID,25.1637,VALID,348,VALID,0.322656,
2011-06-10, 02:45:04,VALID,1001.78,VALID,0,INVALID,163.655,VALID,0,VALID,25.1423,VALID,285,VALID,0.529688,
2011-06-10, 02:46:04,VALID,1001.78,VALID,0,INVALID,163.655,VALID,0,VALID,25.1423,VALID,305,VALID,0.384375,
2011-06-10, 02:47:04,VALID,1001.76,VALID,0,INVALID,163.647,VALID,0,VALID,25.1442,VALID,353,VALID,0.442578,
2011-06-10, 02:48:04,VALID,1001.77,VALID,0,INVALID,163.655,VALID,0,VALID,25.0839,VALID,352,VALID,0.65,
2011-06-10, 02:49:04,VALID,1001.8,VALID,0,INVALID,163.678,VALID,0,VALID,25.0663,VALID,275,VALID,0.408984,
2011-06-10, 02:50:04,VALID,1001.8,VALID,0,INVALID,163.655,VALID,0,VALID,25.045,VALID,329,VALID,0.0804688,
2011-06-10, 02:51:04,VALID,1001.83,VALID,0,INVALID,163.67,VALID,0,VALID,25.0255,VALID,348,VALID,0.485547,
2011-06-10, 02:52:04,VALID,1001.87,VALID,0,INVALID,163.678,VALID,0,VALID,24.9866,VALID,255,VALID,0.406641,
2011-06-10, 02:53:05,VALID,1001.89,VALID,0,INVALID,163.685,VALID,0,VALID,24.9866,VALID,317,VALID,0.08125,
2011-06-10, 02:54:05,VALID,1001.89,VALID,0,INVALID,163.67,VALID,0,VALID,24.969,VALID,345,VALID,0.710938,
2011-06-10, 02:55:05,VALID,1001.91,VALID,0,INVALID,163.655,VALID,0,VALID,24.9087,VALID,354,VALID,0.785156,
2011-06-10, 02:56:05,VALID,1001.93,VALID,0,INVALID,163.678,VALID,0,VALID,24.8911,VALID,1,VALID,1.28906,
2011-06-10, 02:57:05,VALID,1001.95,VALID,0,INVALID,163.67,VALID,0,VALID,24.8716,VALID,351,VALID,0.702344,
2011-06-10, 02:58:05,VALID,1001.92,VALID,0,INVALID,163.693,VALID,0,VALID,24.8113,VALID,351,VALID,1.07266,
2011-06-10, 02:59:05,VALID,1001.94,VALID,0,INVALID,163.693,VALID,0,VALID,24.8132,VALID,351,VALID,0.602344,
2011-06-10, 03:00:05,VALID,1001.93,VALID,0,INVALID,163.693,VALID,0,VALID,24.7724,VALID,339,VALID,0.555859,
2011-06-10, 03:01:05,VALID,1001.95,VALID,0,INVALID,163.67,VALID,0,VALID,24.7743,VALID,332,VALID,0.310937,
2011-06-10, 03:02:05,VALID,1001.93,VALID,0,INVALID,163.678,VALID,0,VALID,24.7743,VALID,332,VALID,0.0660156,
2011-06-10, 03:03:05,VALID,1001.95,VALID,0,INVALID,163.716,VALID,0.100563,VALID,24.7937,VALID,332,VALID,0.0371094,
2011-06-10, 03:04:05,VALID,1001.95,VALID,0,INVALID,163.701,VALID,0,VALID,24.7529,VALID,347,VALID,0.513672,
2011-06-10, 03:05:05,VALID,1001.94,VALID,0,INVALID,163.67,VALID,0,VALID,24.7353,VALID,352,VALID,0.586719,
2011-06-10, 03:06:05,VALID,1001.96,VALID,0,INVALID,163.701,VALID,0,VALID,24.7743,VALID,352,VALID,0.387109,
2011-06-10, 03:07:05,VALID,1001.96,VALID,0,INVALID,163.701,VALID,0,VALID,24.7335,VALID,352,VALID,0.0699219,
2011-06-10, 03:08:05,VALID,1001.98,VALID,0,INVALID,163.678,VALID,0,VALID,24.7529,VALID,352,VALID,0,
2011-06-10, 03:09:05,VALID,1001.97,VALID,0,INVALID,163.693,VALID,0,VALID,24.7743,VALID,352,VALID,0.15,
2011-06-10, 03:10:05,VALID,1001.96,VALID,0,INVALID,163.67,VALID,0,VALID,24.7724,VALID,312,VALID,0.332812,
2011-06-10, 03:11:05,VALID,1001.96,VALID,0,INVALID,163.678,VALID,0,VALID,24.7724,VALID,342,VALID,0.587109,
2011-06-10, 03:12:05,VALID,1001.97,VALID,0,INVALID,163.678,VALID,0,VALID,24.8327,VALID,332,VALID,0.202344,
2011-06-10, 03:13:05,VALID,1001.98,VALID,0,INVALID,163.701,VALID,0,VALID,24.8095,VALID,289,VALID,0.208594,
2011-06-10, 03:14:05,VALID,1001.97,VALID,0,INVALID,163.693,VALID,0,VALID,24.8503,VALID,347,VALID,0.653906,
2011-06-10, 03:15:05,VALID,1001.95,VALID,0,INVALID,163.67,VALID,0,VALID,24.8522,VALID,340,VALID,0.528125,
2011-06-10, 03:16:05,VALID,1001.91,VALID,0,INVALID,163.678,VALID,0,VALID,24.8716,VALID,302,VALID,0.572266,
2011-06-10, 03:17:05,VALID,1001.89,VALID,0,INVALID,163.662,VALID,0,VALID,24.8716,VALID,289,VALID,0.39375,
2011-06-10, 03:18:05,VALID,1001.87,VALID,0,INVALID,163.678,VALID,0,VALID,24.8697,VALID,290,VALID,0.219141,
2011-06-10, 03:19:05,VALID,1001.85,VALID,0,INVALID,163.678,VALID,0,VALID,24.8697,VALID,290,VALID,0.2125,
2011-06-10, 03:20:05,VALID,1001.84,VALID,0,INVALID,163.67,VALID,0,VALID,24.8892,VALID,290,VALID,0.0285156,
2011-06-10, 03:21:05,VALID,1001.86,VALID,0,INVALID,163.67,VALID,0,VALID,24.8697,VALID,289,VALID,0.398047,
2011-06-10, 03:22:05,VALID,1001.87,VALID,0,INVALID,163.67,VALID,0,VALID,24.8911,VALID,290,VALID,0.639844,
2011-06-10, 03:23:05,VALID,1001.88,VALID,0,INVALID,163.67,VALID,0,VALID,24.8697,VALID,277,VALID,0.81875,
2011-06-10, 03:24:05,VALID,1001.9,VALID,0,INVALID,163.685,VALID,0,VALID,24.8911,VALID,284,VALID,0.326172,
2011-06-10, 03:25:05,VALID,1001.95,VALID,0,INVALID,163.678,VALID,0,VALID,24.8697,VALID,284,VALID,0.777734,
2011-06-10, 03:26:05,VALID,1002,VALID,0,INVALID,163.693,VALID,0,VALID,24.8503,VALID,298,VALID,0.896094,
2011-06-10, 03:27:05,VALID,1002.02,VALID,0,INVALID,163.647,VALID,0,VALID,24.8503,VALID,25,VALID,0.253906,
2011-06-10, 03:28:05,VALID,1002.01,VALID,0,INVALID,163.662,VALID,0,VALID,24.8327,VALID,22,VALID,0.169922,
2011-06-10, 03:29:05,VALID,1002.03,VALID,0,INVALID,163.678,VALID,0,VALID,24.8113,VALID,285,VALID,0.807031,
2011-06-10, 03:30:05,VALID,1002.04,VALID,0,INVALID,163.678,VALID,0,VALID,24.8113,VALID,316,VALID,0.325781,
2011-06-10, 03:31:05,VALID,1002.08,VALID,0,INVALID,163.685,VALID,0,VALID,24.8113,VALID,321,VALID,0.463672,
2011-06-10, 03:32:05,VALID,1002.07,VALID,0,INVALID,163.685,VALID,0,VALID,24.8327,VALID,325,VALID,0.142188,
2011-06-10, 03:33:05,VALID,1002.04,VALID,0,INVALID,163.685,VALID,0,VALID,24.8113,VALID,326,VALID,0.424219,
2011-06-10, 03:34:05,VALID,1002.06,VALID,0,INVALID,163.701,VALID,0,VALID,24.8132,VALID,281,VALID,0.407422,
2011-06-10, 03:35:05,VALID,1002.06,VALID,0,INVALID,163.678,VALID,0,VALID,24.7919,VALID,281,VALID,0.0917969,
2011-06-10, 03:36:05,VALID,1002.08,VALID,0,INVALID,163.678,VALID,0,VALID,24.7919,VALID,284,VALID,0.688281,
2011-06-10, 03:37:05,VALID,1002.07,VALID,0,INVALID,163.701,VALID,0.100563,VALID,24.7724,VALID,310,VALID,0.136328,
2011-06-10, 03:38:05,VALID,1002.1,VALID,0,INVALID,163.655,VALID,0,VALID,24.7724,VALID,308,VALID,0.257813,